Time,TemperatureF,DewpointF,PressureIn,WindDirection,WindDirectionDegrees,WindSpeedMPH,WindSpeedGustMPH,Humidity,HourlyPrecipIn,Conditions,Clouds,dailyrainin,SoftwareType,DateUTC
2013-04-24 00:00:00,62.0,45.2,29.42,NNW,338,0.0,0.0,54,0.00,,,0.00,VWS V14.01,2013-04-24 07:00:00,
2013-04-24 00:04:00,49.5,40.9,29.43,NNW,344,0.0,13.0,72,0.00,,,0.00,VWS V14.01,2013-04-24 07:04:00,
2013-04-24 00:09:00,49.5,40.9,29.43,NNW,344,0.0,13.0,72,0.00,,,0.00,VWS V14.01,2013-04-24 07:09:00,
2013-04-24 00:14:00,49.5,41.2,29.43,NNW,344,0.0,13.0,73,0.00,,,0.00,VWS V14.01,2013-04-24 07:14:00,
2013-04-24 00:19:00,49.5,41.2,29.44,NE,55,0.0,13.0,73,0.00,,,0.00,VWS V14.01,2013-04-24 07:19:00,
2013-04-24 00:24:00,49.5,41.9,29.44,East,83,0.0,13.0,75,0.00,,,0.00,VWS V14.01,2013-04-24 07:24:00,
2013-04-24 00:29:00,49.4,42.8,29.44,East,83,1.0,13.0,78,0.00,,,0.00,VWS V14.01,2013-04-24 07:29:00,
2013-04-24 00:30:00,61.2,46.8,29.43,NNW,338,0.0,2.0,59,0.00,,,0.00,VWS V14.01,2013-04-24 07:30:00,
2013-04-24 00:34:00,49.2,42.6,29.44,East,83,0.0,13.0,78,0.00,,,0.00,VWS V14.01,2013-04-24 07:34:00,
2013-04-24 00:39:00,49.0,42.5,29.45,East,83,0.0,13.0,78,0.00,,,0.00,VWS V14.01,2013-04-24 07:39:00,
2013-04-24 00:44:00,48.9,42.7,29.44,East,83,0.0,13.0,79,0.00,,,0.00,VWS V14.01,2013-04-24 07:44:00,
2013-04-24 00:49:00,48.7,42.5,29.44,East,83,0.0,13.0,79,0.00,,,0.00,VWS V14.01,2013-04-24 07:49:00,
2013-04-24 00:54:00,48.5,42.0,29.44,East,83,0.0,13.0,78,0.00,,,0.00,VWS V14.01,2013-04-24 07:54:00,
2013-04-24 00:59:00,48.2,41.7,29.44,East,82,0.0,13.0,78,0.00,,,0.00,VWS V14.01,2013-04-24 07:59:00,
2013-04-24 01:00:00,59.4,44.2,29.43,NNW,338,0.0,2.0,57,0.00,,,0.00,VWS V14.01,2013-04-24 08:00:00,
2013-04-24 01:04:00,47.9,41.4,29.44,East,83,0.0,13.0,78,0.00,,,0.00,VWS V14.01,2013-04-24 08:04:00,
2013-04-24 01:09:00,47.7,41.2,29.44,East,83,0.0,13.0,78,0.00,,,0.00,VWS V14.01,2013-04-24 08:09:00,
2013-04-24 01:14:00,47.7,41.5,29.44,East,83,0.0,13.0,79,0.00,,,0.00,VWS V14.01,2013-04-24 08:14:00,
2013-04-24 01:19:00,47.5,41.3,29.44,East,83,0.0,13.0,79,0.00,,,0.00,VWS V14.01,2013-04-24 08:19:00,
2013-04-24 01:24:00,47.4,41.5,29.43,East,83,0.0,13.0,80,0.00,,,0.00,VWS V14.01,2013-04-24 08:24:00,
2013-04-24 01:29:00,47.3,41.5,29.43,East,83,0.0,13.0,80,0.00,,,0.00,VWS V14.01,2013-04-24 08:29:00,
2013-04-24 01:30:00,58.5,41.5,29.42,NNW,338,2.0,4.0,53,0.00,,,0.00,VWS V14.01,2013-04-24 08:30:00,
2013-04-24 01:34:00,47.0,40.8,29.43,East,83,0.0,13.0,79,0.00,,,0.00,VWS V14.01,2013-04-24 08:34:00,
2013-04-24 01:39:00,46.9,40.7,29.43,East,82,0.0,13.0,79,0.00,,,0.00,VWS V14.01,2013-04-24 08:39:00,
2013-04-24 01:44:00,46.7,40.5,29.43,East,83,0.0,13.0,79,0.00,,,0.00,VWS V14.01,2013-04-24 08:44:00,
2013-04-24 01:49:00,46.6,40.8,29.43,East,83,0.0,13.0,80,0.00,,,0.00,VWS V14.01,2013-04-24 08:49:00,
2013-04-24 01:54:00,46.5,40.7,29.43,East,83,0.0,13.0,80,0.00,,,0.00,VWS V14.01,2013-04-24 08:54:00,
2013-04-24 01:59:00,46.5,41.0,29.43,East,83,0.0,13.0,81,0.00,,,0.00,VWS V14.01,2013-04-24 08:59:00,
2013-04-24 02:00:00,59.9,28.4,29.42,NNW,338,3.0,11.0,30,0.00,,,0.00,VWS V14.01,2013-04-24 09:00:00,
2013-04-24 02:04:00,46.7,41.5,29.43,East,83,0.0,13.0,82,0.00,,,0.00,VWS V14.01,2013-04-24 09:04:00,
2013-04-24 02:09:00,46.8,41.6,29.42,East,83,0.0,13.0,82,0.00,,,0.00,VWS V14.01,2013-04-24 09:09:00,
2013-04-24 02:14:00,46.7,40.9,29.42,East,82,0.0,13.0,80,0.00,,,0.00,VWS V14.01,2013-04-24 09:14:00,
2013-04-24 02:19:00,46.4,40.6,29.42,East,83,0.0,13.0,80,0.00,,,0.00,VWS V14.01,2013-04-24 09:19:00,
2013-04-24 02:24:00,46.2,40.4,29.41,East,83,0.0,13.0,80,0.00,,,0.00,VWS V14.01,2013-04-24 09:24:00,
2013-04-24 02:29:00,45.9,40.1,29.42,East,83,0.0,13.0,80,0.00,,,0.00,VWS V14.01,2013-04-24 09:29:00,
2013-04-24 02:30:00,67.0,28.0,29.42,NNW,338,3.0,13.0,23,0.00,,,0.00,VWS V14.01,2013-04-24 09:30:00,
2013-04-24 02:34:00,45.5,39.7,29.41,East,83,0.0,13.0,80,0.00,,,0.00,VWS V14.01,2013-04-24 09:34:00,
2013-04-24 02:39:00,45.4,39.6,29.41,East,83,0.0,13.0,80,0.00,,,0.00,VWS V14.01,2013-04-24 09:39:00,
2013-04-24 02:44:00,45.2,39.4,29.41,East,83,0.0,13.0,80,0.00,,,0.00,VWS V14.01,2013-04-24 09:44:00,
2013-04-24 02:49:00,45.2,39.7,29.41,East,83,0.0,13.0,81,0.00,,,0.00,VWS V14.01,2013-04-24 09:49:00,
2013-04-24 02:54:00,45.1,39.6,29.41,East,83,0.0,13.0,81,0.00,,,0.00,VWS V14.01,2013-04-24 09:54:00,
2013-04-24 02:59:00,45.1,39.3,29.41,East,83,0.0,13.0,80,0.00,,,0.00,VWS V14.01,2013-04-24 09:59:00,
2013-04-24 03:00:00,69.3,27.7,29.41,North,0,2.0,6.0,21,0.00,,,0.00,VWS V14.01,2013-04-24 10:00:00,
2013-04-24 03:04:00,44.8,39.0,29.41,East,83,0.0,13.0,80,0.00,,,0.00,VWS V14.01,2013-04-24 10:04:00,
2013-04-24 03:09:00,44.7,38.9,29.41,East,83,0.0,13.0,80,0.00,,,0.00,VWS V14.01,2013-04-24 10:09:00,
2013-04-24 03:14:00,44.7,38.9,29.41,East,83,0.0,13.0,80,0.00,,,0.00,VWS V14.01,2013-04-24 10:14:00,
2013-04-24 03:19:00,44.5,39.0,29.41,East,83,0.0,13.0,81,0.00,,,0.00,VWS V14.01,2013-04-24 10:19:00,
2013-04-24 03:24:00,44.5,38.7,29.40,East,83,0.0,13.0,80,0.00,,,0.00,VWS V14.01,2013-04-24 10:24:00,
2013-04-24 03:29:00,44.4,38.6,29.40,East,83,0.0,13.0,80,0.00,,,0.00,VWS V14.01,2013-04-24 10:29:00,
2013-04-24 03:30:00,69.3,26.5,29.41,NNW,338,0.0,8.0,20,0.00,,,0.00,VWS V14.01,2013-04-24 10:30:00,
2013-04-24 03:34:00,44.3,38.8,29.41,East,83,0.0,13.0,81,0.00,,,0.00,VWS V14.01,2013-04-24 10:34:00,
2013-04-24 03:39:00,44.4,38.6,29.40,East,83,0.0,13.0,80,0.00,,,0.00,VWS V14.01,2013-04-24 10:39:00,
2013-04-24 03:44:00,44.3,38.8,29.40,East,83,0.0,13.0,81,0.00,,,0.00,VWS V14.01,2013-04-24 10:44:00,
2013-04-24 03:49:00,44.3,38.8,29.40,East,83,0.0,13.0,81,0.00,,,0.00,VWS V14.01,2013-04-24 10:49:00,
2013-04-24 03:54:00,44.3,38.5,29.40,East,83,0.0,13.0,80,0.00,,,0.00,VWS V14.01,2013-04-24 10:54:00,
2013-04-24 03:59:00,44.1,38.3,29.40,East,83,0.0,13.0,80,0.00,,,0.00,VWS V14.01,2013-04-24 10:59:00,
2013-04-24 04:00:00,67.5,30.5,29.42,NNE,22,0.0,4.0,25,0.00,,,0.00,VWS V14.01,2013-04-24 11:00:00,
2013-04-24 04:04:00,44.0,38.2,29.40,East,83,0.0,13.0,80,0.00,,,0.00,VWS V14.01,2013-04-24 11:04:00,
2013-04-24 04:09:00,43.9,38.1,29.40,East,83,0.0,13.0,80,0.00,,,0.00,VWS V14.01,2013-04-24 11:09:00,
2013-04-24 04:14:00,43.7,38.0,29.40,East,83,0.0,13.0,80,0.00,,,0.00,VWS V14.01,2013-04-24 11:14:00,
2013-04-24 04:19:00,43.7,38.3,29.40,East,83,0.0,13.0,81,0.00,,,0.00,VWS V14.01,2013-04-24 11:19:00,
2013-04-24 04:24:00,43.7,38.6,29.40,East,83,0.0,13.0,82,0.00,,,0.00,VWS V14.01,2013-04-24 11:24:00,
2013-04-24 04:29:00,43.7,38.6,29.40,East,83,0.0,13.0,82,0.00,,,0.00,VWS V14.01,2013-04-24 11:29:00,
2013-04-24 04:30:00,62.8,28.4,29.42,NNE,22,0.0,2.0,27,0.00,,,0.00,VWS V14.01,2013-04-24 11:30:00,
2013-04-24 04:34:00,43.6,38.2,29.40,East,83,0.0,13.0,81,0.00,,,0.00,VWS V14.01,2013-04-24 11:34:00,
2013-04-24 04:39:00,43.6,38.5,29.40,East,82,0.0,13.0,82,0.00,,,0.00,VWS V14.01,2013-04-24 11:39:00,
2013-04-24 04:44:00,43.4,38.0,29.39,East,83,0.0,13.0,81,0.00,,,0.00,VWS V14.01,2013-04-24 11:44:00,
2013-04-24 04:49:00,43.3,37.9,29.40,East,83,0.0,13.0,81,0.00,,,0.00,VWS V14.01,2013-04-24 11:49:00,
2013-04-24 04:54:00,43.0,37.6,29.40,East,83,0.0,13.0,81,0.00,,,0.00,VWS V14.01,2013-04-24 11:54:00,
2013-04-24 04:59:00,43.0,37.6,29.40,East,83,0.0,13.0,81,0.00,,,0.00,VWS V14.01,2013-04-24 11:59:00,
2013-04-24 05:00:00,61.5,31.4,29.42,NNE,22,0.0,0.0,32,0.00,,,0.00,VWS V14.01,2013-04-24 12:00:00,
2013-04-24 05:04:00,43.0,37.9,29.40,East,83,0.0,13.0,82,0.00,,,0.00,VWS V14.01,2013-04-24 12:04:00,
2013-04-24 05:10:00,42.9,37.8,29.40,East,83,0.0,13.0,82,0.00,,,0.00,VWS V14.01,2013-04-24 12:10:00,
2013-04-24 05:15:00,42.8,37.4,29.40,East,83,0.0,13.0,81,0.00,,,0.00,VWS V14.01,2013-04-24 12:15:00,
2013-04-24 05:20:00,42.7,37.6,29.40,East,83,0.0,13.0,82,0.00,,,0.00,VWS V14.01,2013-04-24 12:20:00,
2013-04-24 05:25:00,42.5,37.4,29.40,East,83,0.0,13.0,82,0.00,,,0.00,VWS V14.01,2013-04-24 12:25:00,
2013-04-24 05:30:00,42.5,37.4,29.40,East,83,0.0,13.0,82,0.00,,,0.00,VWS V14.01,2013-04-24 12:30:00,
2013-04-24 05:35:00,42.5,37.4,29.40,East,83,0.0,13.0,82,0.00,,,0.00,VWS V14.01,2013-04-24 12:35:00,
2013-04-24 05:40:00,42.6,37.8,29.40,East,82,0.0,13.0,83,0.00,,,0.00,VWS V14.01,2013-04-24 12:40:00,
2013-04-24 05:45:00,42.6,37.8,29.40,East,83,0.0,13.0,83,0.00,,,0.00,VWS V14.01,2013-04-24 12:45:00,
2013-04-24 05:50:00,42.6,37.5,29.40,East,83,0.0,13.0,82,0.00,,,0.00,VWS V14.01,2013-04-24 12:50:00,
2013-04-24 05:55:00,42.6,37.8,29.40,East,83,0.0,13.0,83,0.00,,,0.00,VWS V14.01,2013-04-24 12:55:00,
2013-04-24 06:00:00,42.4,37.3,29.40,East,83,0.0,13.0,82,0.00,,,0.00,VWS V14.01,2013-04-24 13:00:00,
2013-04-24 06:05:00,42.3,37.2,29.40,East,82,0.0,13.0,82,0.00,,,0.00,VWS V14.01,2013-04-24 13:05:00,
2013-04-24 06:10:00,42.1,37.0,29.41,East,83,0.0,13.0,82,0.00,,,0.00,VWS V14.01,2013-04-24 13:10:00,
2013-04-24 06:15:00,42.1,37.3,29.41,East,83,0.0,13.0,83,0.00,,,0.00,VWS V14.01,2013-04-24 13:15:00,
2013-04-24 06:20:00,42.0,37.2,29.41,East,83,0.0,13.0,83,0.00,,,0.00,VWS V14.01,2013-04-24 13:20:00,
2013-04-24 06:25:00,42.1,37.3,29.41,East,83,0.0,13.0,83,0.00,,,0.00,VWS V14.01,2013-04-24 13:25:00,
2013-04-24 06:30:00,42.0,37.2,29.41,East,83,0.0,13.0,83,0.00,,,0.00,VWS V14.01,2013-04-24 13:30:00,
2013-04-24 06:35:00,42.0,37.2,29.40,East,83,0.0,13.0,83,0.00,,,0.00,VWS V14.01,2013-04-24 13:35:00,
2013-04-24 06:40:00,42.0,37.2,29.41,East,83,0.0,13.0,83,0.00,,,0.00,VWS V14.01,2013-04-24 13:40:00,
2013-04-24 06:45:00,42.1,37.3,29.41,East,83,0.0,13.0,83,0.00,,,0.00,VWS V14.01,2013-04-24 13:45:00,
2013-04-24 06:50:00,42.1,37.6,29.41,East,83,0.0,13.0,84,0.00,,,0.00,VWS V14.01,2013-04-24 13:50:00,
2013-04-24 06:55:00,42.2,37.4,29.41,East,83,0.0,13.0,83,0.00,,,0.00,VWS V14.01,2013-04-24 13:55:00,
2013-04-24 07:00:00,42.1,37.6,29.41,East,82,0.0,13.0,84,0.00,,,0.00,VWS V14.01,2013-04-24 14:00:00,
2013-04-24 07:05:00,42.1,37.6,29.41,East,83,0.0,13.0,84,0.00,,,0.00,VWS V14.01,2013-04-24 14:05:00,
2013-04-24 07:10:00,42.1,37.6,29.41,East,83,0.0,13.0,84,0.00,,,0.00,VWS V14.01,2013-04-24 14:10:00,
2013-04-24 07:15:00,42.3,37.8,29.42,East,83,0.0,13.0,84,0.00,,,0.00,VWS V14.01,2013-04-24 14:15:00,
2013-04-24 07:20:00,42.4,37.9,29.42,East,83,0.0,13.0,84,0.00,,,0.00,VWS V14.01,2013-04-24 14:20:00,
2013-04-24 07:25:00,42.7,38.5,29.42,East,83,0.0,13.0,85,0.00,,,0.00,VWS V14.01,2013-04-24 14:25:00,
2013-04-24 07:30:00,43.0,38.5,29.42,East,83,0.0,13.0,84,0.00,,,0.00,VWS V14.01,2013-04-24 14:30:00,
2013-04-24 07:35:00,43.3,38.8,29.42,East,83,0.0,13.0,84,0.00,,,0.00,VWS V14.01,2013-04-24 14:35:00,
2013-04-24 07:40:00,43.9,39.4,29.42,East,83,0.0,13.0,84,0.00,,,0.00,VWS V14.01,2013-04-24 14:40:00,
2013-04-24 07:56:00,42.2,37.7,29.42,East,90,0.0,0.0,84,0.00,,,0.00,VWS V14.01,2013-04-24 14:56:00,
2013-04-24 08:00:00,65.1,23.1,29.46,ESE,112,2.0,11.0,20,0.00,,,0.00,VWS V14.01,2013-04-24 15:00:00,
2013-04-24 08:01:00,46.2,41.3,29.42,East,82,0.0,0.0,83,0.00,,,0.00,VWS V14.01,2013-04-24 15:01:00,
2013-04-24 08:11:00,47.6,42.1,29.43,East,82,0.0,0.0,81,0.00,,,0.00,VWS V14.01,2013-04-24 15:11:00,
2013-04-24 08:16:00,48.1,42.2,29.43,East,82,0.0,0.0,80,0.00,,,0.00,VWS V14.01,2013-04-24 15:16:00,
2013-04-24 08:21:00,48.4,42.8,29.43,East,82,0.0,0.0,81,0.00,,,0.00,VWS V14.01,2013-04-24 15:21:00,
2013-04-24 08:26:00,49.1,43.2,29.43,East,82,0.0,0.0,80,0.00,,,0.00,VWS V14.01,2013-04-24 15:26:00,
2013-04-24 08:30:00,65.0,28.4,29.47,East,90,1.0,7.0,25,0.00,,,0.00,VWS V14.01,2013-04-24 15:30:00,
2013-04-24 08:31:00,49.8,43.9,29.43,East,82,0.0,0.0,80,0.00,,,0.00,VWS V14.01,2013-04-24 15:31:00,
2013-04-24 08:36:00,50.7,44.4,29.43,East,82,0.0,0.0,79,0.00,,,0.00,VWS V14.01,2013-04-24 15:36:00,
2013-04-24 08:41:00,51.3,44.7,29.43,East,82,0.0,0.0,78,0.00,,,0.00,VWS V14.01,2013-04-24 15:41:00,
2013-04-24 08:46:00,51.9,44.9,29.43,East,82,0.0,0.0,77,0.00,,,0.00,VWS V14.01,2013-04-24 15:46:00,
2013-04-24 08:51:00,52.4,45.1,29.43,East,82,0.0,0.0,76,0.00,,,0.00,VWS V14.01,2013-04-24 15:51:00,
2013-04-24 08:56:00,53.0,45.3,29.43,East,82,0.0,0.0,75,0.00,,,0.00,VWS V14.01,2013-04-24 15:56:00,
2013-04-24 09:00:00,64.3,25.7,29.48,SSW,202,0.0,7.0,23,0.00,,,0.00,VWS V14.01,2013-04-24 16:00:00,
2013-04-24 09:01:00,53.8,45.7,29.44,East,82,0.0,0.0,74,0.00,,,0.00,VWS V14.01,2013-04-24 16:01:00,
2013-04-24 09:06:00,54.4,45.6,29.43,East,82,0.0,0.0,72,0.00,,,0.00,VWS V14.01,2013-04-24 16:06:00,
2013-04-24 09:11:00,55.3,46.1,29.43,East,82,0.0,0.0,71,0.00,,,0.00,VWS V14.01,2013-04-24 16:11:00,
2013-04-24 09:16:00,56.1,46.1,29.44,East,82,0.0,0.0,69,0.00,,,0.00,VWS V14.01,2013-04-24 16:16:00,
2013-04-24 09:21:00,56.4,45.6,29.43,East,82,0.0,0.0,67,0.00,,,0.00,VWS V14.01,2013-04-24 16:21:00,
2013-04-24 09:26:00,57.2,45.6,29.43,East,82,0.0,0.0,65,0.00,,,0.00,VWS V14.01,2013-04-24 16:26:00,
2013-04-24 09:30:00,66.7,21.9,29.48,SSW,202,1.0,9.0,18,0.00,,,0.00,VWS V14.01,2013-04-24 16:30:00,
2013-04-24 09:31:00,58.1,46.0,29.43,East,82,0.0,0.0,64,0.00,,,0.00,VWS V14.01,2013-04-24 16:31:00,
2013-04-24 09:36:00,59.1,46.5,29.44,East,81,0.0,0.0,63,0.00,,,0.00,VWS V14.01,2013-04-24 16:36:00,
2013-04-24 09:41:00,59.8,46.8,29.44,East,81,0.0,0.0,62,0.00,,,0.00,VWS V14.01,2013-04-24 16:41:00,
2013-04-24 09:46:00,60.3,45.9,29.44,East,81,0.0,4.0,59,0.00,,,0.00,VWS V14.01,2013-04-24 16:46:00,
2013-04-24 09:51:00,60.8,46.0,29.44,East,81,2.0,4.0,58,0.00,,,0.00,VWS V14.01,2013-04-24 16:51:00,
2013-04-24 09:56:00,61.3,46.9,29.44,East,81,0.0,4.0,59,0.00,,,0.00,VWS V14.01,2013-04-24 16:56:00,
2013-04-24 10:00:00,68.0,21.6,29.49,SSW,202,3.0,11.0,17,0.00,,,0.00,VWS V14.01,2013-04-24 17:00:00,
2013-04-24 10:01:00,61.7,47.2,29.43,East,81,0.0,4.0,59,0.00,,,0.00,VWS V14.01,2013-04-24 17:01:00,
2013-04-24 10:06:00,62.0,47.1,29.44,East,81,0.0,4.0,58,0.00,,,0.00,VWS V14.01,2013-04-24 17:06:00,
2013-04-24 10:11:00,61.5,45.7,29.44,East,81,0.0,4.0,56,0.00,,,0.00,VWS V14.01,2013-04-24 17:11:00,
2013-04-24 10:16:00,61.3,46.9,29.44,East,81,0.0,4.0,59,0.00,,,0.00,VWS V14.01,2013-04-24 17:16:00,
2013-04-24 10:21:00,62.0,47.1,29.44,East,81,1.0,4.0,58,0.00,,,0.00,VWS V14.01,2013-04-24 17:21:00,
2013-04-24 10:26:00,62.7,47.3,29.43,East,81,0.0,4.0,57,0.00,,,0.00,VWS V14.01,2013-04-24 17:26:00,
2013-04-24 10:30:00,69.0,22.4,29.49,SSW,202,3.0,13.0,17,0.00,,,0.00,VWS V14.01,2013-04-24 17:30:00,
2013-04-24 10:31:00,63.3,46.9,29.44,East,81,3.0,4.0,55,0.00,,,0.00,VWS V14.01,2013-04-24 17:31:00,
2013-04-24 10:37:00,63.2,47.7,29.44,East,80,0.0,4.0,57,0.00,,,0.00,VWS V14.01,2013-04-24 17:37:00,
2013-04-24 10:42:00,63.7,47.7,29.44,East,81,4.0,4.0,56,0.00,,,0.00,VWS V14.01,2013-04-24 17:42:00,
2013-04-24 10:47:00,63.7,47.2,29.44,East,82,2.0,5.0,55,0.00,,,0.00,VWS V14.01,2013-04-24 17:47:00,
2013-04-24 10:52:00,63.1,46.2,29.44,East,82,2.0,5.0,54,0.00,,,0.00,VWS V14.01,2013-04-24 17:52:00,
2013-04-24 10:57:00,63.3,47.3,29.44,East,82,1.0,5.0,56,0.00,,,0.00,VWS V14.01,2013-04-24 17:57:00,
2013-04-24 11:00:00,70.2,18.8,29.50,SSW,202,3.0,13.0,14,0.00,,,0.00,VWS V14.01,2013-04-24 18:00:00,
2013-04-24 11:02:00,63.4,47.5,29.45,East,82,0.0,6.0,56,0.00,,,0.00,VWS V14.01,2013-04-24 18:02:00,
2013-04-24 11:07:00,63.9,46.5,29.44,East,82,0.0,6.0,53,0.00,,,0.00,VWS V14.01,2013-04-24 18:07:00,
2013-04-24 11:12:00,64.2,47.7,29.44,East,82,0.0,6.0,55,0.00,,,0.00,VWS V14.01,2013-04-24 18:12:00,
2013-04-24 11:17:00,64.3,47.8,29.44,East,82,2.0,6.0,55,0.00,,,0.00,VWS V14.01,2013-04-24 18:17:00,
2013-04-24 11:22:00,64.8,47.3,29.44,East,82,1.0,6.0,53,0.00,,,0.00,VWS V14.01,2013-04-24 18:22:00,
2013-04-24 11:27:00,64.9,47.4,29.44,East,82,1.0,6.0,53,0.00,,,0.00,VWS V14.01,2013-04-24 18:27:00,
2013-04-24 11:30:00,70.7,19.2,29.50,ESE,112,4.0,14.0,14,0.00,,,0.00,VWS V14.01,2013-04-24 18:30:00,
2013-04-24 11:32:00,65.2,47.2,29.44,East,82,1.0,6.0,52,0.00,,,0.00,VWS V14.01,2013-04-24 18:32:00,
2013-04-24 11:37:00,65.9,47.3,29.44,East,82,0.0,6.0,51,0.00,,,0.00,VWS V14.01,2013-04-24 18:37:00,
2013-04-24 11:42:00,65.9,46.8,29.44,East,82,3.0,6.0,50,0.00,,,0.00,VWS V14.01,2013-04-24 18:42:00,
2013-04-24 11:47:00,65.7,46.6,29.44,East,82,0.0,6.0,50,0.00,,,0.00,VWS V14.01,2013-04-24 18:47:00,
2013-04-24 11:52:00,65.9,46.2,29.44,East,82,1.0,6.0,49,0.00,,,0.00,VWS V14.01,2013-04-24 18:52:00,
2013-04-24 11:57:00,65.9,46.2,29.44,East,82,1.0,6.0,49,0.00,,,0.00,VWS V14.01,2013-04-24 18:57:00,
2013-04-24 12:00:00,72.3,18.7,29.50,ESE,112,2.0,10.0,13,0.00,,,0.00,VWS V14.01,2013-04-24 19:00:00,
2013-04-24 12:02:00,66.3,47.1,29.44,East,82,0.0,6.0,50,0.00,,,0.00,VWS V14.01,2013-04-24 19:02:00,
2013-04-24 12:07:00,67.3,46.4,29.44,East,82,1.0,6.0,47,0.00,,,0.00,VWS V14.01,2013-04-24 19:07:00,
2013-04-24 12:12:00,67.4,46.5,29.44,East,82,0.0,6.0,47,0.00,,,0.00,VWS V14.01,2013-04-24 19:12:00,
2013-04-24 12:17:00,66.5,45.7,29.44,East,82,1.0,6.0,47,0.00,,,0.00,VWS V14.01,2013-04-24 19:17:00,
2013-04-24 12:22:00,65.8,45.6,29.44,East,83,0.0,7.0,48,0.00,,,0.00,VWS V14.01,2013-04-24 19:22:00,
2013-04-24 12:27:00,65.5,45.8,29.44,East,83,6.0,7.0,49,0.00,,,0.00,VWS V14.01,2013-04-24 19:27:00,
2013-04-24 12:30:00,73.8,18.1,29.50,SSW,202,2.0,10.0,12,0.00,,,0.00,VWS V14.01,2013-04-24 19:30:00,
2013-04-24 12:32:00,65.3,46.2,29.43,East,83,0.0,7.0,50,0.00,,,0.00,VWS V14.01,2013-04-24 19:32:00,
2013-04-24 12:37:00,65.5,45.8,29.44,East,83,2.0,7.0,49,0.00,,,0.00,VWS V14.01,2013-04-24 19:37:00,
2013-04-24 12:42:00,64.6,45.0,29.43,East,83,0.0,7.0,49,0.00,,,0.00,VWS V14.01,2013-04-24 19:42:00,
2013-04-24 12:47:00,64.3,45.8,29.44,East,83,3.0,7.0,51,0.00,,,0.00,VWS V14.01,2013-04-24 19:47:00,
2013-04-24 12:52:00,64.1,45.6,29.43,WSW,249,0.0,7.0,51,0.00,,,0.00,VWS V14.01,2013-04-24 19:52:00,
2013-04-24 12:57:00,64.9,45.8,29.43,SSW,197,2.0,7.0,50,0.00,,,0.00,VWS V14.01,2013-04-24 19:57:00,
2013-04-24 13:00:00,75.4,21.2,29.49,ESE,112,2.0,13.0,13,0.00,,,0.00,VWS V14.01,2013-04-24 20:00:00,
2013-04-24 13:02:00,65.2,45.6,29.43,SSW,206,1.0,7.0,49,0.00,,,0.00,VWS V14.01,2013-04-24 20:02:00,
2013-04-24 13:07:00,66.3,46.0,29.43,SSW,204,4.0,7.0,48,0.00,,,0.00,VWS V14.01,2013-04-24 20:07:00,
2013-04-24 13:12:00,66.7,46.4,29.43,SW,215,0.0,7.0,48,0.00,,,0.00,VWS V14.01,2013-04-24 20:12:00,
2013-04-24 13:17:00,67.6,47.2,29.43,WNW,282,0.0,7.0,48,0.00,,,0.00,VWS V14.01,2013-04-24 20:17:00,
2013-04-24 13:22:00,68.5,46.9,29.43,WNW,282,0.0,7.0,46,0.00,,,0.00,VWS V14.01,2013-04-24 20:22:00,
2013-04-24 13:27:00,69.3,48.2,29.43,WNW,283,0.0,7.0,47,0.00,,,0.00,VWS V14.01,2013-04-24 20:27:00,
2013-04-24 13:30:00,76.3,18.0,29.48,ESE,112,3.0,11.0,11,0.00,,,0.00,VWS V14.01,2013-04-24 20:30:00,
2013-04-24 13:32:00,70.3,48.0,29.43,WNW,283,1.0,7.0,45,0.00,,,0.00,VWS V14.01,2013-04-24 20:32:00,
2013-04-24 13:37:00,70.9,47.9,29.43,WNW,283,0.0,7.0,44,0.00,,,0.00,VWS V14.01,2013-04-24 20:37:00,
2013-04-24 13:42:00,71.3,47.7,29.43,WSW,244,2.0,7.0,43,0.00,,,0.00,VWS V14.01,2013-04-24 20:42:00,
2013-04-24 13:47:00,70.9,47.9,29.43,WSW,243,0.0,7.0,44,0.00,,,0.00,VWS V14.01,2013-04-24 20:47:00,
2013-04-24 13:52:00,71.1,48.1,29.42,WSW,250,2.0,7.0,44,0.00,,,0.00,VWS V14.01,2013-04-24 20:52:00,
2013-04-24 13:57:00,71.1,48.1,29.42,West,261,2.0,7.0,44,0.00,,,0.00,VWS V14.01,2013-04-24 20:57:00,
2013-04-24 14:00:00,77.2,18.7,29.47,SSW,202,2.0,10.0,11,0.00,,,0.00,VWS V14.01,2013-04-24 21:00:00,
2013-04-24 14:02:00,71.1,48.1,29.42,West,273,1.0,7.0,44,0.00,,,0.00,VWS V14.01,2013-04-24 21:02:00,
2013-04-24 14:07:00,71.3,47.7,29.42,West,273,2.0,7.0,43,0.00,,,0.00,VWS V14.01,2013-04-24 21:07:00,
2013-04-24 14:12:00,70.4,47.5,29.42,West,276,1.0,7.0,44,0.00,,,0.00,VWS V14.01,2013-04-24 21:12:00,
2013-04-24 14:17:00,70.1,47.2,29.42,WNW,282,1.0,7.0,44,0.00,,,0.00,VWS V14.01,2013-04-24 21:17:00,
2013-04-24 14:22:00,69.8,46.9,29.42,WNW,284,2.0,7.0,44,0.00,,,0.00,VWS V14.01,2013-04-24 21:22:00,
2013-04-24 14:27:00,69.1,46.9,29.42,NNW,330,2.0,7.0,45,0.00,,,0.00,VWS V14.01,2013-04-24 21:27:00,
2013-04-24 14:30:00,77.7,24.8,29.46,SSW,202,2.0,10.0,14,0.00,,,0.00,VWS V14.01,2013-04-24 21:30:00,
2013-04-24 14:32:00,68.9,46.7,29.42,NNW,339,3.0,7.0,45,0.00,,,0.00,VWS V14.01,2013-04-24 21:32:00,
2013-04-24 14:37:00,68.6,47.0,29.42,NNW,339,2.0,7.0,46,0.00,,,0.00,VWS V14.01,2013-04-24 21:37:00,
2013-04-24 14:42:00,68.5,46.9,29.42,NNW,339,2.0,7.0,46,0.00,,,0.00,VWS V14.01,2013-04-24 21:42:00,
2013-04-24 14:47:00,68.4,46.8,29.42,NNW,334,5.0,7.0,46,0.00,,,0.00,VWS V14.01,2013-04-24 21:47:00,
2013-04-24 14:52:00,68.1,46.0,29.42,NNW,343,2.0,7.0,45,0.00,,,0.00,VWS V14.01,2013-04-24 21:52:00,
2013-04-24 14:57:00,68.1,46.6,29.42,NNW,343,1.0,7.0,46,0.00,,,0.00,VWS V14.01,2013-04-24 21:57:00,
2013-04-24 15:00:00,79.6,27.9,29.45,SSW,202,1.0,7.0,15,0.00,,,0.00,VWS V14.01,2013-04-24 22:00:00,
2013-04-24 15:02:00,67.8,46.3,29.42,NNW,342,2.0,7.0,46,0.00,,,0.00,VWS V14.01,2013-04-24 22:02:00,
2013-04-24 15:07:00,67.8,46.9,29.42,NNW,342,4.0,7.0,47,0.00,,,0.00,VWS V14.01,2013-04-24 22:07:00,
2013-04-24 15:12:00,67.3,46.4,29.41,NNW,342,3.0,7.0,47,0.00,,,0.00,VWS V14.01,2013-04-24 22:12:00,
2013-04-24 15:17:00,66.9,46.0,29.41,NNW,335,2.0,8.0,47,0.00,,,0.00,VWS V14.01,2013-04-24 22:17:00,
2013-04-24 15:22:00,66.2,46.0,29.41,NW,323,4.0,8.0,48,0.00,,,0.00,VWS V14.01,2013-04-24 22:22:00,
2013-04-24 15:27:00,65.4,45.8,29.41,NNW,335,5.0,8.0,49,0.00,,,0.00,VWS V14.01,2013-04-24 22:27:00,
2013-04-24 15:30:00,79.1,30.6,29.44,SSW,202,1.0,8.0,17,0.00,,,0.00,VWS V14.01,2013-04-24 22:30:00,
2013-04-24 15:32:00,65.2,46.1,29.41,NNW,334,6.0,8.0,50,0.00,,,0.00,VWS V14.01,2013-04-24 22:32:00,
2013-04-24 15:37:00,65.1,46.0,29.41,NNW,341,2.0,9.0,50,0.00,,,0.00,VWS V14.01,2013-04-24 22:37:00,
2013-04-24 15:42:00,64.7,45.7,29.41,NNW,334,2.0,9.0,50,0.00,,,0.00,VWS V14.01,2013-04-24 22:42:00,
2013-04-24 15:47:00,64.1,45.6,29.41,North,350,6.0,9.0,51,0.00,,,0.00,VWS V14.01,2013-04-24 22:47:00,
2013-04-24 15:52:00,64.2,45.7,29.41,North,349,6.0,11.0,51,0.00,,,0.00,VWS V14.01,2013-04-24 22:52:00,
2013-04-24 15:57:00,64.1,45.1,29.41,NNW,348,5.0,11.0,50,0.00,,,0.00,VWS V14.01,2013-04-24 22:57:00,
2013-04-24 16:00:00,79.7,32.5,29.44,SSW,202,1.0,7.0,18,0.00,,,0.00,VWS V14.01,2013-04-24 23:00:00,
2013-04-24 16:02:00,64.1,45.1,29.41,NNW,348,6.0,11.0,50,0.00,,,0.00,VWS V14.01,2013-04-24 23:02:00,
2013-04-24 16:07:00,63.9,44.9,29.41,NNW,330,3.0,11.0,50,0.00,,,0.00,VWS V14.01,2013-04-24 23:07:00,
2013-04-24 16:12:00,63.3,44.9,29.41,NW,312,4.0,11.0,51,0.00,,,0.00,VWS V14.01,2013-04-24 23:12:00,
2013-04-24 16:17:00,62.9,45.0,29.41,NNW,327,4.0,11.0,52,0.00,,,0.00,VWS V14.01,2013-04-24 23:17:00,
2013-04-24 16:22:00,62.7,44.8,29.41,NNW,329,5.0,11.0,52,0.00,,,0.00,VWS V14.01,2013-04-24 23:22:00,
2013-04-24 16:27:00,62.1,44.3,29.41,NNW,331,8.0,11.0,52,0.00,,,0.00,VWS V14.01,2013-04-24 23:27:00,
2013-04-24 16:30:00,82.0,42.8,29.43,SW,225,2.0,7.0,25,0.00,,,0.00,VWS V14.01,2013-04-24 23:30:00,
2013-04-24 16:32:00,61.6,44.3,29.41,NNW,328,5.0,11.0,53,0.00,,,0.00,VWS V14.01,2013-04-24 23:32:00,
2013-04-24 16:37:00,61.1,44.3,29.41,NNW,331,7.0,11.0,54,0.00,,,0.00,VWS V14.01,2013-04-24 23:37:00,
2013-04-24 16:42:00,61.0,44.7,29.41,NNW,332,3.0,11.0,55,0.00,,,0.00,VWS V14.01,2013-04-24 23:42:00,
2013-04-24 16:47:00,61.0,44.7,29.41,NNW,329,5.0,11.0,55,0.00,,,0.00,VWS V14.01,2013-04-24 23:47:00,
2013-04-24 16:52:00,61.0,44.7,29.41,NW,326,6.0,11.0,55,0.00,,,0.00,VWS V14.01,2013-04-24 23:52:00,
2013-04-24 16:57:00,60.6,44.4,29.41,NNW,333,4.0,11.0,55,0.00,,,0.00,VWS V14.01,2013-04-24 23:57:00,
2013-04-24 17:00:00,81.9,40.5,29.42,West,270,1.0,5.0,23,0.00,,,0.00,VWS V14.01,2013-04-25 00:00:00,
2013-04-24 17:02:00,60.3,44.1,29.41,NW,314,4.0,11.0,55,0.00,,,0.00,VWS V14.01,2013-04-25 00:02:00,
2013-04-24 17:07:00,60.4,44.7,29.41,North,353,4.0,11.0,56,0.00,,,0.00,VWS V14.01,2013-04-25 00:07:00,
2013-04-24 17:12:00,60.7,44.9,29.41,NNW,331,6.0,11.0,56,0.00,,,0.00,VWS V14.01,2013-04-25 00:12:00,
2013-04-24 17:17:00,60.5,44.3,29.41,NNW,337,7.0,11.0,55,0.00,,,0.00,VWS V14.01,2013-04-25 00:17:00,
2013-04-24 17:22:00,60.0,44.3,29.42,NW,321,4.0,11.0,56,0.00,,,0.00,VWS V14.01,2013-04-25 00:22:00,
2013-04-24 17:27:00,59.8,44.5,29.41,North,352,4.0,11.0,57,0.00,,,0.00,VWS V14.01,2013-04-25 00:27:00,
2013-04-24 17:30:00,81.2,42.1,29.42,West,270,2.0,6.0,25,0.00,,,0.00,VWS V14.01,2013-04-25 00:30:00,
2013-04-24 17:32:00,59.5,44.3,29.41,NNW,331,6.0,11.0,57,0.00,,,0.00,VWS V14.01,2013-04-25 00:32:00,
2013-04-24 17:37:00,59.3,44.5,29.42,NNW,337,5.0,11.0,58,0.00,,,0.00,VWS V14.01,2013-04-25 00:37:00,
2013-04-24 17:42:00,59.2,44.9,29.42,NNW,333,6.0,11.0,59,0.00,,,0.00,VWS V14.01,2013-04-25 00:42:00,
2013-04-24 17:47:00,58.9,44.6,29.42,NNW,330,7.0,11.0,59,0.00,,,0.00,VWS V14.01,2013-04-25 00:47:00,
2013-04-24 17:52:00,58.7,44.9,29.42,NNW,327,2.0,11.0,60,0.00,,,0.00,VWS V14.01,2013-04-25 00:52:00,
2013-04-24 17:57:00,58.5,44.7,29.42,NNW,341,4.0,11.0,60,0.00,,,0.00,VWS V14.01,2013-04-25 00:57:00,
2013-04-24 18:00:00,77.3,39.8,29.42,NW,315,4.0,8.0,26,0.00,,,0.00,VWS V14.01,2013-04-25 01:00:00,
2013-04-24 18:02:00,58.6,44.8,29.42,NNW,337,4.0,11.0,60,0.00,,,0.00,VWS V14.01,2013-04-25 01:02:00,
2013-04-24 18:08:00,58.4,45.0,29.43,NNW,348,0.0,11.0,61,0.00,,,0.00,VWS V14.01,2013-04-25 01:08:00,
2013-04-24 18:13:00,58.2,44.8,29.43,NNW,336,5.0,11.0,61,0.00,,,0.00,VWS V14.01,2013-04-25 01:13:00,
2013-04-24 18:18:00,57.8,44.9,29.43,NNW,339,5.0,11.0,62,0.00,,,0.00,VWS V14.01,2013-04-25 01:18:00,
2013-04-24 18:23:00,57.4,44.5,29.43,NNW,336,4.0,11.0,62,0.00,,,0.00,VWS V14.01,2013-04-25 01:23:00,
2013-04-24 18:28:00,57.2,44.7,29.43,NNW,337,6.0,11.0,63,0.00,,,0.00,VWS V14.01,2013-04-25 01:28:00,
2013-04-24 18:30:00,73.9,36.9,29.42,NW,315,6.0,10.0,26,0.00,,,0.00,VWS V14.01,2013-04-25 01:30:00,
2013-04-24 18:33:00,56.8,44.3,29.44,NNW,335,3.0,11.0,63,0.00,,,0.00,VWS V14.01,2013-04-25 01:33:00,
2013-04-24 18:38:00,56.5,44.5,29.43,NNW,341,2.0,11.0,64,0.00,,,0.00,VWS V14.01,2013-04-25 01:38:00,
2013-04-24 18:43:00,55.9,44.3,29.43,NNW,336,2.0,11.0,65,0.00,,,0.00,VWS V14.01,2013-04-25 01:43:00,
2013-04-24 18:48:00,55.4,44.2,29.44,North,353,4.0,11.0,66,0.00,,,0.00,VWS V14.01,2013-04-25 01:48:00,
2013-04-24 18:53:00,55.0,44.3,29.44,NNW,332,3.0,11.0,67,0.00,,,0.00,VWS V14.01,2013-04-25 01:53:00,
2013-04-24 18:58:00,54.5,44.2,29.44,NW,326,4.0,11.0,68,0.00,,,0.00,VWS V14.01,2013-04-25 01:58:00,
2013-04-24 19:00:00,73.0,38.9,29.42,NNW,338,5.0,9.0,29,0.00,,,0.00,VWS V14.01,2013-04-25 02:00:00,
2013-04-24 19:03:00,54.0,44.5,29.44,NNW,341,4.0,11.0,70,0.00,,,0.00,VWS V14.01,2013-04-25 02:03:00,
2013-04-24 19:08:00,53.6,44.1,29.45,NNW,329,4.0,11.0,70,0.00,,,0.00,VWS V14.01,2013-04-25 02:08:00,
2013-04-24 19:13:00,53.5,44.3,29.44,NNW,347,3.0,11.0,71,0.00,,,0.00,VWS V14.01,2013-04-25 02:13:00,
2013-04-24 19:18:00,53.2,44.4,29.45,North,350,1.0,11.0,72,0.00,,,0.00,VWS V14.01,2013-04-25 02:18:00,
2013-04-24 19:23:00,53.2,44.4,29.45,North,349,4.0,11.0,72,0.00,,,0.00,VWS V14.01,2013-04-25 02:23:00,
2013-04-24 19:28:00,53.1,44.3,29.45,North,351,1.0,11.0,72,0.00,,,0.00,VWS V14.01,2013-04-25 02:28:00,
2013-04-24 19:30:00,71.5,37.6,29.42,NNW,338,5.0,12.0,29,0.00,,,0.00,VWS V14.01,2013-04-25 02:30:00,
2013-04-24 19:33:00,52.8,44.0,29.45,North,354,3.0,12.0,72,0.00,,,0.00,VWS V14.01,2013-04-25 02:33:00,
2013-04-24 19:38:00,52.7,44.3,29.46,North,350,3.0,12.0,73,0.00,,,0.00,VWS V14.01,2013-04-25 02:38:00,
2013-04-24 19:43:00,52.6,44.6,29.46,North,351,0.0,12.0,74,0.00,,,0.00,VWS V14.01,2013-04-25 02:43:00,
2013-04-24 19:48:00,52.5,44.5,29.45,North,353,0.0,12.0,74,0.00,,,0.00,VWS V14.01,2013-04-25 02:48:00,
2013-04-24 19:53:00,52.3,44.3,29.46,North,351,1.0,12.0,74,0.00,,,0.00,VWS V14.01,2013-04-25 02:53:00,
2013-04-24 19:58:00,52.1,44.4,29.46,North,353,4.0,12.0,75,0.00,,,0.00,VWS V14.01,2013-04-25 02:58:00,
2013-04-24 20:00:00,69.3,37.4,29.42,NNW,338,4.0,9.0,31,0.00,,,0.00,VWS V14.01,2013-04-25 03:00:00,
2013-04-24 20:03:00,52.1,44.4,29.47,North,349,2.0,12.0,75,0.00,,,0.00,VWS V14.01,2013-04-25 03:03:00,
2013-04-24 20:08:00,52.0,44.7,29.46,North,354,1.0,12.0,76,0.00,,,0.00,VWS V14.01,2013-04-25 03:08:00,
2013-04-24 20:13:00,51.9,44.6,29.47,North,353,0.0,12.0,76,0.00,,,0.00,VWS V14.01,2013-04-25 03:13:00,
2013-04-24 20:18:00,51.8,44.5,29.46,North,349,3.0,12.0,76,0.00,,,0.00,VWS V14.01,2013-04-25 03:18:00,
2013-04-24 20:23:00,51.8,44.5,29.47,North,349,2.0,12.0,76,0.00,,,0.00,VWS V14.01,2013-04-25 03:23:00,
2013-04-24 20:28:00,51.7,44.7,29.47,NNW,348,0.0,12.0,77,0.00,,,0.00,VWS V14.01,2013-04-25 03:28:00,
2013-04-24 20:30:00,67.0,34.6,29.42,North,0,2.0,7.0,30,0.00,,,0.00,VWS V14.01,2013-04-25 03:30:00,
2013-04-24 20:33:00,51.7,44.7,29.47,NNW,348,2.0,12.0,77,0.00,,,0.00,VWS V14.01,2013-04-25 03:33:00,
2013-04-24 20:38:00,51.7,44.7,29.47,NNW,348,1.0,12.0,77,0.00,,,0.00,VWS V14.01,2013-04-25 03:38:00,
2013-04-24 20:43:00,51.6,44.6,29.47,NNW,348,0.0,12.0,77,0.00,,,0.00,VWS V14.01,2013-04-25 03:43:00,
2013-04-24 20:48:00,51.6,45.0,29.47,NNW,348,2.0,12.0,78,0.00,,,0.00,VWS V14.01,2013-04-25 03:48:00,
2013-04-24 20:53:00,51.5,44.9,29.48,North,349,0.0,12.0,78,0.00,,,0.00,VWS V14.01,2013-04-25 03:53:00,
2013-04-24 20:58:00,51.5,44.9,29.48,North,349,0.0,12.0,78,0.00,,,0.00,VWS V14.01,2013-04-25 03:58:00,
2013-04-24 21:00:00,64.6,34.9,29.41,NNW,338,2.0,6.0,33,0.00,,,0.00,VWS V14.01,2013-04-25 04:00:00,
2013-04-24 21:03:00,51.5,44.9,29.48,North,349,0.0,12.0,78,0.00,,,0.00,VWS V14.01,2013-04-25 04:03:00,
2013-04-24 21:08:00,51.4,44.8,29.48,NNW,348,0.0,12.0,78,0.00,,,0.00,VWS V14.01,2013-04-25 04:08:00,
2013-04-24 21:13:00,51.3,44.7,29.48,North,349,3.0,12.0,78,0.00,,,0.00,VWS V14.01,2013-04-25 04:13:00,
2013-04-24 21:18:00,51.3,44.7,29.49,North,349,0.0,12.0,78,0.00,,,0.00,VWS V14.01,2013-04-25 04:18:00,
2013-04-24 21:23:00,51.3,44.7,29.49,North,349,3.0,12.0,78,0.00,,,0.00,VWS V14.01,2013-04-25 04:23:00,
2013-04-24 21:28:00,51.2,44.6,29.49,North,349,1.0,12.0,78,0.00,,,0.00,VWS V14.01,2013-04-25 04:28:00,
2013-04-24 21:30:00,61.7,34.5,29.42,NNW,338,2.0,6.0,36,0.00,,,0.00,VWS V14.01,2013-04-25 04:30:00,
2013-04-24 21:33:00,51.3,44.7,29.48,North,349,2.0,12.0,78,0.00,,,0.00,VWS V14.01,2013-04-25 04:33:00,
2013-04-24 21:38:00,51.2,44.6,29.49,North,349,0.0,12.0,78,0.00,,,0.00,VWS V14.01,2013-04-25 04:38:00,
2013-04-24 21:43:00,51.2,44.6,29.49,North,349,0.0,12.0,78,0.00,,,0.00,VWS V14.01,2013-04-25 04:43:00,
2013-04-24 21:48:00,51.1,44.8,29.49,North,349,0.0,12.0,79,0.00,,,0.00,VWS V14.01,2013-04-25 04:48:00,
2013-04-24 21:53:00,51.0,44.4,29.49,NNW,348,0.0,12.0,78,0.00,,,0.00,VWS V14.01,2013-04-25 04:53:00,
2013-04-24 21:58:00,50.8,44.5,29.49,North,349,0.0,12.0,79,0.00,,,0.00,VWS V14.01,2013-04-25 04:58:00,
2013-04-24 22:00:00,60.2,33.2,29.43,NNW,338,1.0,4.0,36,0.00,,,0.00,VWS V14.01,2013-04-25 05:00:00,
2013-04-24 22:03:00,50.7,44.1,29.50,North,349,0.0,12.0,78,0.00,,,0.00,VWS V14.01,2013-04-25 05:03:00,
2013-04-24 22:08:00,50.6,44.3,29.50,North,349,0.0,12.0,79,0.00,,,0.00,VWS V14.01,2013-04-25 05:08:00,
2013-04-24 22:13:00,50.4,44.1,29.50,North,349,0.0,12.0,79,0.00,,,0.00,VWS V14.01,2013-04-25 05:13:00,
2013-04-24 22:18:00,50.4,44.1,29.50,North,349,0.0,12.0,79,0.00,,,0.00,VWS V14.01,2013-04-25 05:18:00,
2013-04-24 22:23:00,50.2,44.0,29.50,North,349,0.0,12.0,79,0.00,,,0.00,VWS V14.01,2013-04-25 05:23:00,
2013-04-24 22:28:00,50.2,44.3,29.50,North,349,0.0,12.0,80,0.00,,,0.00,VWS V14.01,2013-04-25 05:28:00,
2013-04-24 22:30:00,59.1,35.4,29.44,NNW,338,0.0,5.0,41,0.00,,,0.00,VWS V14.01,2013-04-25 05:30:00,
2013-04-24 22:33:00,50.1,44.2,29.50,North,349,0.0,12.0,80,0.00,,,0.00,VWS V14.01,2013-04-25 05:33:00,
2013-04-24 22:38:00,50.0,44.1,29.50,North,349,0.0,12.0,80,0.00,,,0.00,VWS V14.01,2013-04-25 05:38:00,
2013-04-24 22:43:00,50.0,44.1,29.50,North,349,1.0,12.0,80,0.00,,,0.00,VWS V14.01,2013-04-25 05:43:00,
2013-04-24 22:48:00,49.9,44.0,29.50,North,349,0.0,12.0,80,0.00,,,0.00,VWS V14.01,2013-04-25 05:48:00,
2013-04-24 22:53:00,49.9,44.0,29.50,North,349,0.0,12.0,80,0.00,,,0.00,VWS V14.01,2013-04-25 05:53:00,
2013-04-24 22:58:00,49.8,43.9,29.50,North,349,0.0,12.0,80,0.00,,,0.00,VWS V14.01,2013-04-25 05:58:00,
2013-04-24 23:00:00,57.4,37.9,29.43,NNW,338,0.0,0.0,48,0.00,,,0.00,VWS V14.01,2013-04-25 06:00:00,
2013-04-24 23:03:00,49.7,44.1,29.50,North,349,0.0,12.0,81,0.00,,,0.00,VWS V14.01,2013-04-25 06:03:00,
2013-04-24 23:08:00,49.7,44.1,29.50,North,349,0.0,12.0,81,0.00,,,0.00,VWS V14.01,2013-04-25 06:08:00,
2013-04-24 23:13:00,49.6,44.0,29.50,North,349,0.0,12.0,81,0.00,,,0.00,VWS V14.01,2013-04-25 06:13:00,
2013-04-24 23:18:00,49.5,43.9,29.50,North,349,0.0,12.0,81,0.00,,,0.00,VWS V14.01,2013-04-25 06:18:00,
2013-04-24 23:23:00,49.5,43.9,29.50,North,349,0.0,12.0,81,0.00,,,0.00,VWS V14.01,2013-04-25 06:23:00,
2013-04-24 23:28:00,49.5,43.9,29.50,North,349,0.0,12.0,81,0.00,,,0.00,VWS V14.01,2013-04-25 06:28:00,
2013-04-24 23:30:00,55.1,42.8,29.44,NNW,338,0.0,2.0,63,0.00,,,0.00,VWS V14.01,2013-04-25 06:30:00,
2013-04-24 23:33:00,49.4,43.8,29.50,North,349,0.0,12.0,81,0.00,,,0.00,VWS V14.01,2013-04-25 06:33:00,
2013-04-24 23:38:00,49.3,43.7,29.50,North,349,0.0,12.0,81,0.00,,,0.00,VWS V14.01,2013-04-25 06:38:00,
2013-04-24 23:43:00,49.4,43.8,29.50,North,349,0.0,12.0,81,0.00,,,0.00,VWS V14.01,2013-04-25 06:43:00,
2013-04-24 23:48:00,49.4,43.8,29.50,North,349,0.0,12.0,81,0.00,,,0.00,VWS V14.01,2013-04-25 06:48:00,
2013-04-24 23:53:00,49.5,44.2,29.50,NNW,348,0.0,12.0,82,0.00,,,0.00,VWS V14.01,2013-04-25 06:53:00,
2013-04-24 23:58:00,49.4,43.8,29.50,North,349,0.0,12.0,81,0.00,,,0.00,VWS V14.01,2013-04-25 06:58:00,